Voltar ao catálogo

YAOGAN 22

AtivoMilitarSSO
NORAD 40275·PAYLOAD·🇨🇳 China

Lançado Oct 20, 2014 de Taiyuan Satellite Launch Center

Loading…

Próximas Passagens (próximas 24 horas)

TLE

AtualizadoSource: Space-Track

Época: Sep 14, 2026, 09:26 UTC

1 40275U 14063A   26257.39344761 -.00000027  00000-0  53759-4 0  9994
2 40275 100.7863  50.2039 0006207 354.9353   5.1694 13.15533188571546

Acompanhe YAOGAN 22 em tempo real com AllMySat

Download on the App Store